Time,TemperatureF,DewpointF,PressureIn,WindDirection,WindDirectionDegrees,WindSpeedMPH,WindSpeedGustMPH,Humidity,HourlyPrecipIn,Conditions,Clouds,dailyrainin,SoftwareType,DateUTC
2013-02-08 00:12:00,34.8,34.0,30.10,SSW,205,4.0,6.0,95,0.00,,,0.00,weatherlink.com 1.10,2013-02-08 08:12:00,
2013-02-08 00:27:00,35.3,34.0,30.11,SW,223,4.0,7.0,94,0.00,,,0.00,weatherlink.com 1.10,2013-02-08 08:27:00,
2013-02-08 00:42:00,35.3,34.0,30.10,SW,233,3.0,5.0,94,0.00,,,0.00,weatherlink.com 1.10,2013-02-08 08:42:00,
2013-02-08 00:57:00,35.3,34.0,30.11,SSW,213,1.0,2.0,94,0.00,,,0.00,weatherlink.com 1.10,2013-02-08 08:57:00,
2013-02-08 01:12:00,34.4,33.0,30.11,SW,225,0.0,1.0,94,0.00,,,0.00,weatherlink.com 1.10,2013-02-08 09:12:00,
2013-02-08 01:28:00,34.5,33.0,30.11,WSW,252,2.0,2.0,95,0.00,,,0.00,weatherlink.com 1.10,2013-02-08 09:28:00,
2013-02-08 01:43:00,34.0,33.0,30.12,SW,222,1.0,2.0,94,0.00,,,0.00,weatherlink.com 1.10,2013-02-08 09:43:00,
2013-02-08 01:58:00,33.4,32.0,30.12,SSW,210,2.0,3.0,95,0.00,,,0.00,weatherlink.com 1.10,2013-02-08 09:58:00,
2013-02-08 02:13:00,32.9,32.0,30.13,SW,215,1.0,3.0,95,0.00,,,0.00,weatherlink.com 1.10,2013-02-08 10:13:00,
2013-02-08 02:28:00,32.4,31.0,30.14,SW,232,2.0,3.0,95,0.00,,,0.00,weatherlink.com 1.10,2013-02-08 10:28:00,
2013-02-08 02:43:00,32.5,32.0,30.14,SW,229,1.0,3.0,96,0.00,,,0.00,weatherlink.com 1.10,2013-02-08 10:43:00,
2013-02-08 02:58:00,32.9,32.0,30.14,SW,229,1.0,2.0,96,0.00,,,0.00,weatherlink.com 1.10,2013-02-08 10:58:00,
2013-02-08 03:13:00,33.4,32.0,30.14,SW,217,1.0,2.0,96,0.00,,,0.00,weatherlink.com 1.10,2013-02-08 11:13:00,
2013-02-08 03:28:00,33.6,33.0,30.14,WSW,245,2.0,2.0,96,0.00,,,0.00,weatherlink.com 1.10,2013-02-08 11:28:00,
2013-02-08 03:43:00,34.0,33.0,30.14,WSW,246,2.0,3.0,96,0.00,,,0.00,weatherlink.com 1.10,2013-02-08 11:43:00,
2013-02-08 03:58:00,33.9,33.0,30.15,WSW,245,1.0,3.0,96,0.00,,,0.00,weatherlink.com 1.10,2013-02-08 11:58:00,
2013-02-08 04:13:00,33.4,32.0,30.15,SSW,211,2.0,2.0,96,0.00,,,0.00,weatherlink.com 1.10,2013-02-08 12:13:00,
2013-02-08 04:28:00,32.8,32.0,30.16,South,184,2.0,3.0,96,0.00,,,0.00,weatherlink.com 1.10,2013-02-08 12:28:00,
2013-02-08 04:43:00,32.5,32.0,30.16,SW,230,2.0,2.0,96,0.00,,,0.00,weatherlink.com 1.10,2013-02-08 12:43:00,
2013-02-08 04:58:00,32.5,32.0,30.16,West,275,1.0,1.0,96,0.00,,,0.00,weatherlink.com 1.10,2013-02-08 12:58:00,
2013-02-08 05:13:00,32.0,31.0,30.16,SW,221,2.0,3.0,96,0.00,,,0.00,weatherlink.com 1.10,2013-02-08 13:13:00,
2013-02-08 05:28:00,32.2,31.0,30.16,SW,226,0.0,2.0,96,0.00,,,0.00,weatherlink.com 1.10,2013-02-08 13:28:00,
2013-02-08 05:43:00,32.5,32.0,30.16,SE,146,0.0,1.0,96,0.00,,,0.00,weatherlink.com 1.10,2013-02-08 13:43:00,
2013-02-08 05:59:00,32.5,32.0,30.16,SW,223,1.0,2.0,96,0.00,,,0.00,weatherlink.com 1.10,2013-02-08 13:59:00,
2013-02-08 06:13:00,32.5,32.0,30.16,SW,214,1.0,2.0,96,0.00,,,0.00,weatherlink.com 1.10,2013-02-08 14:13:00,
2013-02-08 06:28:00,32.9,32.0,30.17,SSW,213,2.0,2.0,96,0.00,,,0.00,weatherlink.com 1.10,2013-02-08 14:28:00,
2013-02-08 06:43:00,33.1,32.0,30.17,SW,226,2.0,2.0,96,0.00,,,0.00,weatherlink.com 1.10,2013-02-08 14:43:00,
2013-02-08 06:58:00,33.5,33.0,30.17,SW,221,2.0,5.0,96,0.00,,,0.00,weatherlink.com 1.10,2013-02-08 14:58:00,
2013-02-08 07:13:00,34.0,33.0,30.18,SW,222,3.0,5.0,96,0.00,,,0.00,weatherlink.com 1.10,2013-02-08 15:13:00,
2013-02-08 07:28:00,34.3,33.0,30.18,SSE,159,1.0,3.0,96,0.00,,,0.00,weatherlink.com 1.10,2013-02-08 15:28:00,
2013-02-08 07:43:00,34.7,34.0,30.19,ESE,113,2.0,4.0,96,0.00,,,0.00,weatherlink.com 1.10,2013-02-08 15:43:00,
2013-02-08 07:58:00,35.3,34.0,30.19,SE,146,0.0,2.0,96,0.00,,,0.00,weatherlink.com 1.10,2013-02-08 15:58:00,
2013-02-08 08:13:00,35.3,34.0,30.19,WSW,242,1.0,1.0,95,0.00,,,0.00,weatherlink.com 1.10,2013-02-08 16:13:00,
2013-02-08 08:28:00,35.4,34.0,30.20,SW,234,0.0,1.0,95,0.00,,,0.00,weatherlink.com 1.10,2013-02-08 16:28:00,
2013-02-08 08:44:00,35.5,35.0,30.20,South,178,0.0,1.0,96,0.00,,,0.00,weatherlink.com 1.10,2013-02-08 16:44:00,
2013-02-08 08:59:00,36.0,35.0,30.20,South,178,0.0,0.0,96,0.00,,,0.00,weatherlink.com 1.10,2013-02-08 16:59:00,
2013-02-08 09:13:00,36.7,36.0,30.20,SE,134,0.0,1.0,96,0.00,,,0.00,weatherlink.com 1.10,2013-02-08 17:13:00,
2013-02-08 09:28:00,37.0,36.0,30.21,East,93,1.0,2.0,95,0.00,,,0.00,weatherlink.com 1.10,2013-02-08 17:28:00,
2013-02-08 09:44:00,37.1,36.0,30.20,East,88,1.0,2.0,95,0.00,,,0.00,weatherlink.com 1.10,2013-02-08 17:44:00,
2013-02-08 09:58:00,37.5,36.0,30.21,East,89,1.0,3.0,95,0.00,,,0.00,weatherlink.com 1.10,2013-02-08 17:58:00,
2013-02-08 10:13:00,37.8,37.0,30.21,ENE,59,0.0,3.0,95,0.00,,,0.00,weatherlink.com 1.10,2013-02-08 18:13:00,
2013-02-08 10:28:00,39.2,38.0,30.21,NNE,17,4.0,4.0,95,0.00,,,0.00,weatherlink.com 1.10,2013-02-08 18:28:00,
2013-02-08 10:43:00,40.2,39.0,30.21,NNW,337,2.0,5.0,94,0.00,,,0.00,weatherlink.com 1.10,2013-02-08 18:43:00,
2013-02-08 10:58:00,42.3,40.0,30.21,NE,43,1.0,3.0,90,0.00,,,0.00,weatherlink.com 1.10,2013-02-08 18:58:00,
2013-02-08 11:14:00,41.8,39.0,30.21,NE,36,4.0,7.0,88,0.00,,,0.00,weatherlink.com 1.10,2013-02-08 19:14:00,
2013-02-08 11:29:00,41.4,38.0,30.21,ENE,66,3.0,6.0,89,0.00,,,0.00,weatherlink.com 1.10,2013-02-08 19:29:00,
2013-02-08 11:44:00,41.2,39.0,30.20,ENE,61,5.0,7.0,90,0.00,,,0.00,weatherlink.com 1.10,2013-02-08 19:44:00,
2013-02-08 11:59:00,41.0,38.0,30.20,NE,44,6.0,6.0,89,0.00,,,0.00,weatherlink.com 1.10,2013-02-08 19:59:00,
2013-02-08 12:14:00,41.2,38.0,30.19,NNE,27,3.0,5.0,89,0.00,,,0.00,weatherlink.com 1.10,2013-02-08 20:14:00,
2013-02-08 12:29:00,41.7,38.0,30.19,North,355,1.0,4.0,88,0.00,,,0.00,weatherlink.com 1.10,2013-02-08 20:29:00,
2013-02-08 12:44:00,42.3,39.0,30.19,ENE,59,4.0,4.0,87,0.00,,,0.00,weatherlink.com 1.10,2013-02-08 20:44:00,
2013-02-08 12:59:00,42.2,38.0,30.19,NNE,30,3.0,6.0,86,0.00,,,0.00,weatherlink.com 1.10,2013-02-08 20:59:00,
2013-02-08 13:14:00,41.9,38.0,30.20,ENE,57,4.0,5.0,87,0.00,,,0.00,weatherlink.com 1.10,2013-02-08 21:14:00,
2013-02-08 13:29:00,41.7,38.0,30.19,NE,43,2.0,4.0,88,0.00,,,0.00,weatherlink.com 1.10,2013-02-08 21:29:00,
2013-02-08 13:44:00,41.7,38.0,30.20,NE,56,3.0,3.0,88,0.00,,,0.00,weatherlink.com 1.10,2013-02-08 21:44:00,
2013-02-08 13:59:00,41.8,39.0,30.19,ENE,58,3.0,3.0,88,0.00,,,0.00,weatherlink.com 1.10,2013-02-08 21:59:00,
2013-02-08 14:14:00,42.0,38.0,30.19,ENE,75,1.0,2.0,87,0.00,,,0.00,weatherlink.com 1.10,2013-02-08 22:14:00,
2013-02-08 14:29:00,42.2,39.0,30.19,ENE,59,2.0,3.0,87,0.00,,,0.00,weatherlink.com 1.10,2013-02-08 22:29:00,
2013-02-08 14:44:00,42.3,39.0,30.19,NE,40,2.0,3.0,87,0.00,,,0.00,weatherlink.com 1.10,2013-02-08 22:44:00,
2013-02-08 14:59:00,42.2,38.0,30.19,NNW,345,2.0,4.0,86,0.00,,,0.00,weatherlink.com 1.10,2013-02-08 22:59:00,
2013-02-08 15:14:00,42.2,38.0,30.20,NNW,335,2.0,4.0,86,0.00,,,0.00,weatherlink.com 1.10,2013-02-08 23:14:00,
2013-02-08 15:29:00,42.3,38.0,30.20,NNE,24,3.0,3.0,86,0.00,,,0.00,weatherlink.com 1.10,2013-02-08 23:29:00,
2013-02-08 15:44:00,42.4,39.0,30.19,NE,43,3.0,4.0,86,0.00,,,0.00,weatherlink.com 1.10,2013-02-08 23:44:00,
2013-02-08 15:59:00,42.5,39.0,30.19,NNE,27,2.0,4.0,86,0.00,,,0.00,weatherlink.com 1.10,2013-02-08 23:59:00,
2013-02-08 16:14:00,42.5,38.0,30.19,NE,43,2.0,3.0,85,0.00,,,0.00,weatherlink.com 1.10,2013-02-09 00:14:00,
2013-02-08 16:29:00,42.3,38.0,30.18,North,351,1.0,2.0,86,0.00,,,0.00,weatherlink.com 1.10,2013-02-09 00:29:00,
2013-02-08 16:44:00,42.2,38.0,30.18,NNE,27,1.0,2.0,86,0.00,,,0.00,weatherlink.com 1.10,2013-02-09 00:44:00,
2013-02-08 16:59:00,42.2,38.0,30.18,NNE,27,1.0,1.0,86,0.00,,,0.00,weatherlink.com 1.10,2013-02-09 00:59:00,
2013-02-08 17:14:00,42.0,38.0,30.19,ENE,67,2.0,3.0,87,0.00,,,0.00,weatherlink.com 1.10,2013-02-09 01:14:00,
2013-02-08 17:29:00,42.0,39.0,30.19,East,82,0.0,2.0,88,0.00,,,0.00,weatherlink.com 1.10,2013-02-09 01:29:00,
2013-02-08 17:44:00,42.0,39.0,30.19,ENE,61,1.0,2.0,88,0.00,,,0.00,weatherlink.com 1.10,2013-02-09 01:44:00,
2013-02-08 17:59:00,42.0,39.0,30.19,NE,52,1.0,2.0,89,0.00,,,0.00,weatherlink.com 1.10,2013-02-09 01:59:00,
2013-02-08 18:14:00,41.9,39.0,30.19,NE,39,3.0,3.0,88,0.00,,,0.00,weatherlink.com 1.10,2013-02-09 02:14:00,
2013-02-08 18:29:00,41.9,39.0,30.19,NNE,30,2.0,3.0,88,0.00,,,0.00,weatherlink.com 1.10,2013-02-09 02:29:00,
2013-02-08 18:44:00,41.8,39.0,30.19,NNE,27,3.0,3.0,89,0.00,,,0.00,weatherlink.com 1.10,2013-02-09 02:44:00,
2013-02-08 18:59:00,41.8,39.0,30.19,NNE,13,3.0,3.0,88,0.00,,,0.00,weatherlink.com 1.10,2013-02-09 02:59:00,
2013-02-08 19:14:00,41.7,39.0,30.18,North,360,2.0,3.0,89,0.00,,,0.00,weatherlink.com 1.10,2013-02-09 03:14:00,
2013-02-08 19:29:00,41.8,38.0,30.18,NNE,23,2.0,4.0,87,0.00,,,0.00,weatherlink.com 1.10,2013-02-09 03:29:00,
2013-02-08 19:44:00,41.9,38.0,30.19,NE,36,2.0,4.0,87,0.00,,,0.00,weatherlink.com 1.10,2013-02-09 03:44:00,
2013-02-08 19:59:00,41.9,38.0,30.19,NNE,13,1.0,2.0,87,0.00,,,0.00,weatherlink.com 1.10,2013-02-09 03:59:00,
2013-02-08 20:14:00,42.0,38.0,30.18,NW,322,2.0,3.0,86,0.00,,,0.00,weatherlink.com 1.10,2013-02-09 04:14:00,
2013-02-08 20:29:00,42.1,38.0,30.18,NNE,15,1.0,3.0,86,0.00,,,0.00,weatherlink.com 1.10,2013-02-09 04:29:00,
2013-02-08 20:44:00,42.1,38.0,30.19,NNW,342,0.0,1.0,86,0.00,,,0.00,weatherlink.com 1.10,2013-02-09 04:44:00,
2013-02-08 20:59:00,42.1,38.0,30.19,NW,325,1.0,2.0,86,0.00,,,0.00,weatherlink.com 1.10,2013-02-09 04:59:00,
2013-02-08 21:14:00,42.1,38.0,30.19,NW,318,1.0,2.0,86,0.00,,,0.00,weatherlink.com 1.10,2013-02-09 05:14:00,
2013-02-08 21:29:00,42.2,38.0,30.19,NW,306,2.0,3.0,86,0.00,,,0.00,weatherlink.com 1.10,2013-02-09 05:29:00,
2013-02-08 21:44:00,42.2,38.0,30.18,NW,315,2.0,3.0,86,0.00,,,0.00,weatherlink.com 1.10,2013-02-09 05:44:00,
2013-02-08 21:59:00,42.3,38.0,30.19,NW,307,1.0,3.0,85,0.00,,,0.00,weatherlink.com 1.10,2013-02-09 05:59:00,
2013-02-08 22:14:00,42.3,38.0,30.19,WNW,295,0.0,2.0,85,0.00,,,0.00,weatherlink.com 1.10,2013-02-09 06:14:00,
2013-02-08 22:29:00,41.8,38.0,30.18,WNW,295,0.0,1.0,86,0.00,,,0.00,weatherlink.com 1.10,2013-02-09 06:29:00,
2013-02-08 22:44:00,41.7,38.0,30.18,WSW,240,1.0,1.0,86,0.00,,,0.00,weatherlink.com 1.10,2013-02-09 06:44:00,
2013-02-08 22:59:00,41.7,38.0,30.18,SW,236,1.0,2.0,86,0.00,,,0.00,weatherlink.com 1.10,2013-02-09 06:59:00,
2013-02-08 23:14:00,41.7,38.0,30.18,SSW,202,1.0,2.0,85,0.00,,,0.00,weatherlink.com 1.10,2013-02-09 07:14:00,
2013-02-08 23:29:00,41.7,38.0,30.19,SW,218,1.0,2.0,85,0.00,,,0.00,weatherlink.com 1.10,2013-02-09 07:29:00,
2013-02-08 23:44:00,41.6,37.0,30.19,WSW,250,1.0,2.0,85,0.00,,,0.00,weatherlink.com 1.10,2013-02-09 07:44:00,
2013-02-08 23:59:00,41.5,38.0,30.19,SSW,211,2.0,2.0,87,0.00,,,0.00,weatherlink.com 1.10,2013-02-09 07:59:00,